Location: Unspecified
(0.0000°N, 0.0000°E)
Time: 05:29:24
(UTC+02:00)

Cosmos 1733 Rocket - Visible Passes

Search period start: 30 July 2016 00:00
Search period end: 09 August 2016 00:00
Orbit: 603 x 629 km, 82.5° (Epoch: 29 July)

Date Brightness Start Highest point End Pass type
(mag) Time Alt. Az. Time Alt. Az. Time Alt. Az.
30 Jul 4.5 21:37:19 10° SSW 21:41:26 37° W 21:45:31 10° NNW visible
31 Jul 5.9 21:54:56 10° SW 21:57:52 17° W 22:00:47 10° NW visible
01 Aug 3.5 20:32:40 10° SSE 20:36:48 39° E 20:40:54 10° NNE visible
02 Aug 3.1 20:48:48 10° S 20:53:15 90° E 20:57:38 10° N visible
03 Aug 4.6 21:05:33 10° SSW 21:09:41 39° W 21:13:47 10° NNW visible
04 Aug 6.7 07:39:00 10° ENE 07:40:15 11° E 07:41:30 10° ESE visible
04 Aug 6.0 21:23:06 10° SW 21:26:07 18° W 21:29:06 10° NW visible
07 Aug 4.6 20:33:47 10° SSW 20:37:56 40° W 20:42:02 10° NNW visible
08 Aug 6.7 07:07:29 10° ENE 07:08:29 11° E 07:09:29 10° E visible
08 Aug 6.1 20:51:18 10° SW 20:54:22 19° W 20:57:24 10° NW visible
